Wind_Speed
2 1 1 6 11 16 16 14 14 13 16 21 25 23 22 27 32 36 40 42 43 43 46 49 51 50 47 44 40 38 37 37 37 35 35 35 33 31 30 30 29 28 26 24
3 5 6 10 11 6 5 8 10 14 19 23 26 28 25 26 30 36 37 37 38 41 43 46 48 47 43 42 39 38 37 36 36 36 36 35 33 31 30 29 27 26 23 20
7 7 9 10 6 5 7 10 13 15 17 19 20 20 17 19 24 30 32 33 34 38 40 42 42 37 34 32 31 34 35 36 36 36 36 34 32 31 29 27 25 23 21 19
4 6 12 10 7 8 9 13 15 17 18 17 15 15 15 18 22 28 31 33 35 36 38 40 34 27 26 23 22 26 31 34 36 36 35 33 31 29 28 25 23 22 21 21
5 8 10 8 8 10 11 12 13 11 11 10 10 11 15 20 24 28 29 32 37 38 40 39 37 33 30 33 33 30 32 34 35 35 34 32 30 28 27 25 24 23 23 23
3 8 9 8 8 9 10 8 6 11 14 18 20 14 16 20 24 28 30 33 35 36 36 36 37 37 35 37 36 37 36 35 34 34 32 31 29 28 27 27 27 27 27 27
2 2 7 11 10 9 9 8 8 12 21 23 16 7 17 20 22 25 28 30 33 35 36 36 36 36 37 38 39 39 38 36 35 35 35 34 31 30 29 30 30 31 32 32
8 3 5 12 13 10 8 7 9 13 15 18 19 19 23 25 26 26 28 31 34 37 39 40 40 41 41 42 43 43 42 41 41 40 40 40 38 36 35 35 34 35 36 36
10 7 8 12 12 9 10 9 10 14 13 13 18 28 30 29 27 27 29 35 39 40 42 43 44 46 47 48 48 49 49 49 48 48 47 47 46 45 44 43 42 41 40 40
7 7 6 8 10 13 15 15 15 16 16 17 17 29 33 33 34 35 37 39 41 43 45 46 48 50 51 53 54 54 55 56 56 56 55 55 54 53 53 52 51 50 48 47
7 7 5 8 10 12 16 17 19 19 19 21 22 29 32 34 37 39 40 42 44 45 47 49 52 54 55 56 58 59 59 60 61 61 61 61 61 61 61 60 59 58 56 54
10 9 8 10 14 13 16 20 23 25 24 23 24 31 31 34 37 40 43 46 48 49 51 53 55 57 58 60 61 62 63 64 64 65 65 66 66 66 66 65 65 64 63 61
11 12 11 12 15 17 18 20 24 26 28 28 28 34 34 36 38 41 45 48 51 54 57 60 61 62 63 65 66 67 68 69 69 70 70 70 70 69 69 68 67 67 66 64
13 14 14 13 14 17 19 21 23 25 27 29 31 37 41 40 41 46 50 54 57 60 63 65 67 68 69 70 72 73 74 75 76 76 76 76 75 75 74 73 71 70 69 68
14 14 15 15 15 16 18 20 22 26 29 32 36 39 47 48 50 53 56 59 63 66 69 70 71 73 76 77 78 77 76 74 73 73 75 77 80 81 80 80 79 78 77 75
18 17 16 16 16 17 20 20 24 30 35 38 41 43 50 54 57 59 62 65 68 71 72 74 76 77 76 73 68 62 57 53 51 49 48 50 54 60 66 72 76 79 80 81
19 19 18 17 16 19 23 25 30 35 39 44 47 49 52 55 58 61 64 67 71 73 76 78 75 69 60 50 43 39 37 36 36 35 34 34 34 34 35 39 46 54 62 70
20 19 20 19 20 22 26 28 34 38 42 47 50 53 56 59 61 63 66 71 75 77 76 69 59 48 41 37 37 38 40 41 42 41 41 41 39 36 34 33 32 33 35 41
23 22 22 22 22 28 32 34 39 44 48 53 55 57 60 63 65 67 71 75 75 70 62 52 44 39 38 39 40 42 43 45 45 45 45 44 43 41 39 36 34 34 34 34
25 24 23 25 28 31 36 41 45 49 51 56 58 60 62 65 68 70 72 71 64 56 48 42 39 39 40 43 45 47 48 49 49 49 48 47 46 45 43 42 40 38 37 35
22 24 26 28 30 36 39 44 46 49 52 54 56 59 64 68 72 72 68 60 52 45 41 40 42 44 47 49 51 52 52 52 52 51 50 49 48 47 46 45 43 40 39 37
23 26 28 30 33 38 42 46 50 53 57 59 62 65 69 71 71 66 59 51 45 42 42 44 47 50 52 54 56 55 55 54 53 52 51 50 48 48 47 45 43 41 39 38
24 26 30 33 36 40 45 49 52 56 59 62 65 68 71 72 68 60 52 46 45 46 47 50 53 55 57 58 58 58 57 55 54 52 50 49 47 45 44 42 41 40 38 37
29 29 31 34 38 42 47 50 53 56 60 63 66 70 71 69 62 54 49 48 49 51 54 56 58 59 58 57 57 56 55 53 51 48 46 44 43 41 39 38 38 37 36 35
28 31 34 38 42 44 47 51 54 57 61 64 68 70 70 65 57 51 50 51 54 56 57 57 57 55 54 53 52 50 49 47 45 44 42 39 37 35 34 33 33 32 31 31
30 33 36 40 44 47 50 52 56 59 62 65 68 69 67 59 53 51 53 56 57 57 57 55 54 53 51 49 46 44 43 42 40 37 35 32 31 30 29 28 28 27 27 27
Wind_Direction
300 315 302 248 248 250 241 227 225 228 232 247 255 255 253 260 261 263 269 275 279 280 280 278 276 272 267 268 269 271 275 281 286 293 297 299 298 296 295 294 291 288 284 280
287 236 242 274 282 289 278 267 261 250 241 248 260 272 264 258 269 272 276 278 278 276 275 270 264 257 254 260 261 264 272 280 286 292 296 298 297 295 293 292 288 282 277 272
298 310 300 303 295 285 276 264 250 253 253 254 271 286 289 272 263 272 278 278 274 271 267 265 250 245 249 253 253 262 271 278 285 292 295 295 295 293 291 287 282 274 268 265
264 282 296 300 286 280 272 270 261 263 269 269 265 273 279 272 267 269 274 277 276 276 272 272 273 265 270 276 286 281 283 285 288 289 292 293 291 290 288 284 278 268 262 263
297 296 303 307 292 287 278 271 274 282 283 269 255 258 257 258 263 274 281 284 287 290 292 291 294 304 301 300 302 299 293 291 291 290 289 290 290 289 285 280 274 267 262 263
39 352 344 326 319 318 313 306 304 304 289 272 251 228 252 273 282 284 288 291 293 295 295 296 299 303 303 301 298 301 299 293 290 290 289 288 287 287 285 281 274 269 266 265
151 291 327 333 332 317 311 317 320 315 319 328 327 287 258 281 288 291 295 298 299 300 300 301 301 300 298 296 295 295 295 294 291 289 288 286 284 283 282 279 277 275 272 271
341 20 327 311 319 332 338 341 329 313 310 316 318 291 273 273 279 287 294 300 302 302 301 300 299 298 296 294 293 291 290 288 286 285 283 281 280 279 278 276 275 273 272 273
323 321 297 305 323 335 338 329 312 304 307 305 299 292 292 296 289 288 294 299 301 301 299 298 296 295 294 292 290 289 288 286 284 283 281 279 277 276 274 273 271 269 268 269
301 299 292 305 320 318 320 323 320 315 309 299 296 297 298 299 302 302 301 300 300 299 298 296 294 293 291 290 289 288 286 285 283 281 280 278 276 274 272 271 270 269 267 266
307 309 310 302 290 288 302 314 314 313 308 298 295 290 290 296 298 299 299 298 297 297 295 294 292 291 290 289 288 286 284 283 281 279 278 276 275 273 272 270 269 268 267 265
309 313 314 303 292 293 309 316 317 317 314 308 303 293 298 298 298 297 297 297 297 297 296 294 293 292 291 290 289 287 285 282 280 278 276 275 273 272 271 270 269 268 267 266
311 312 309 306 308 316 315 312 307 308 308 310 305 297 299 299 299 298 297 298 298 298 297 297 296 295 293 291 289 287 285 283 280 277 275 273 272 271 269 268 267 266 265 265
315 312 310 307 302 301 302 302 305 307 306 307 306 304 304 304 304 302 302 302 303 302 301 300 299 297 295 293 290 288 285 282 279 277 274 271 269 268 267 266 266 265 264 263
327 322 317 314 308 300 298 306 309 308 308 309 309 308 307 308 307 306 305 305 304 303 302 301 299 298 296 294 292 289 287 285 282 279 275 271 268 266 265 264 263 263 263 262
335 331 323 318 315 311 309 317 313 311 312 311 311 312 310 310 310 309 309 308 306 305 304 303 301 299 297 295 293 293 292 292 292 290 287 282 277 272 269 266 264 263 262 261
340 337 333 329 326 320 316 323 316 316 316 315 316 315 312 312 312 312 312 309 308 308 307 305 303 302 300 299 298 299 299 300 300 299 297 295 291 287 282 277 272 268 265 262
347 342 338 338 337 322 325 324 320 321 321 319 320 319 319 317 316 317 316 314 314 312 310 308 306 304 302 301 301 300 299 298 297 295 293 291 289 287 285 283 281 278 275 270
347 344 340 342 338 324 331 330 327 328 328 325 325 324 323 321 321 321 319 317 315 312 311 310 308 306 304 303 302 301 299 298 296 294 291 289 287 285 282 281 281 279 279 277
340 338 341 341 336 330 335 332 333 332 330 329 328 325 323 321 321 321 321 319 317 316 314 312 309 307 306 304 303 301 299 297 295 293 290 286 284 281 279 278 276 275 274 275
334 338 341 340 336 331 335 332 330 330 330 328 326 325 325 326 326 326 325 323 320 318 314 311 308 306 306 304 303 301 299 297 294 292 289 286 282 279 277 275 273 270 269 268
338 339 339 338 335 330 331 329 331 331 331 330 330 330 329 330 329 328 327 325 322 318 314 310 307 306 305 303 302 300 299 297 294 291 288 285 282 279 277 274 270 267 265 262
339 338 337 336 333 330 330 331 331 331 332 332 332 332 332 332 332 331 329 327 323 319 315 312 309 307 306 304 302 300 299 297 294 291 288 284 281 279 275 271 267 263 260 257
332 336 333 332 332 332 331 330 330 331 332 333 334 335 335 335 334 333 331 328 325 321 318 315 312 310 308 306 304 302 300 297 294 291 289 285 282 277 273 268 264 260 255 250
328 329 332 333 333 332 329 329 330 333 335 336 337 338 338 337 336 335 333 331 328 325 323 320 319 317 314 311 307 305 302 299 296 293 290 286 280 275 269 264 260 254 248 241
330 331 333 332 331 331 331 332 333 335 337 338 339 340 340 339 338 338 336 334 333 331 330 328 326 324 321 318 314 310 306 303 301 297 292 286 280 273 267 261 253 243 235 230
Height
5870 5871 5871 5871 5871 5871 5872 5874 5876 5878 5879 5877 5874 5874 5876 5873 5871 5870 5870 5869 5866 5864 5860 5854 5847 5841 5835 5830 5834 5838 5840 5841 5839 5839 5838 5837 5836 5834 5832 5831 5830 5829 5827 5827
5870 5869 5869 5869 5869 5869 5871 5872 5873 5873 5872 5870 5869 5868 5869 5869 5866 5863 5862 5860 5857 5853 5848 5840 5830 5821 5821 5820 5822 5825 5830 5832 5832 5832 5831 5830 5829 5827 5826 5825 5823 5823 5822 5822
5869 5867 5867 5868 5868 5868 5868 5867 5866 5865 5864 5864 5865 5864 5864 5862 5859 5856 5853 5850 5845 5838 5834 5823 5806 5799 5804 5806 5805 5815 5821 5824 5824 5824 5824 5823 5822 5820 5819 5818 5817 5817 5817 5817
5868 5868 5867 5866 5865 5865 5865 5863 5862 5862 5861 5861 5862 5861 5860 5855 5852 5849 5845 5841 5835 5829 5824 5814 5798 5789 5799 5798 5801 5808 5814 5815 5816 5816 5815 5815 5815 5813 5812 5811 5811 5811 5811 5812
5867 5866 5865 5864 5863 5862 5861 5859 5859 5858 5857 5856 5857 5857 5856 5850 5846 5843 5841 5837 5832 5827 5821 5814 5804 5802 5804 5804 5805 5805 5808 5808 5807 5807 5807 5807 5806 5806 5805 5804 5804 5804 5805 5806
5865 5866 5864 5863 5862 5861 5859 5858 5857 5855 5853 5850 5847 5848 5849 5846 5843 5840 5838 5834 5829 5825 5821 5815 5810 5806 5804 5803 5802 5802 5802 5801 5800 5799 5799 5800 5799 5799 5798 5797 5797 5798 5798 5798
5862 5864 5864 5863 5861 5860 5858 5857 5856 5854 5848 5844 5842 5842 5843 5841 5838 5835 5833 5830 5825 5820 5816 5812 5808 5804 5802 5801 5799 5798 5796 5794 5793 5792 5792 5791 5791 5791 5791 5790 5790 5790 5790 5790
5859 5862 5863 5863 5861 5858 5857 5856 5856 5853 5851 5849 5843 5840 5836 5834 5833 5831 5828 5825 5821 5816 5811 5806 5802 5799 5796 5794 5792 5790 5787 5786 5785 5783 5782 5781 5781 5781 5781 5781 5782 5782 5781 5781
5863 5863 5864 5862 5860 5858 5857 5855 5854 5851 5849 5848 5846 5838 5832 5827 5826 5826 5824 5820 5815 5809 5804 5800 5795 5791 5787 5784 5781 5778 5776 5774 5773 5772 5771 5770 5769 5769 5769 5769 5770 5770 5771 5771
5864 5863 5862 5861 5860 5858 5856 5854 5852 5849 5847 5844 5843 5834 5829 5825 5823 5821 5818 5814 5809 5803 5797 5791 5786 5781 5777 5772 5769 5766 5762 5760 5758 5757 5756 5755 5755 5755 5755 5755 5756 5756 5757 5758
5862 5862 5861 5859 5857 5856 5854 5852 5849 5847 5844 5841 5837 5834 5827 5823 5819 5814 5810 5806 5801 5796 5790 5783 5776 5771 5766 5760 5756 5752 5748 5746 5743 5741 5739 5738 5738 5738 5738 5739 5739 5740 5741 5743
5861 5860 5859 5857 5854 5851 5851 5849 5846 5843 5840 5836 5832 5829 5823 5818 5813 5808 5802 5796 5790 5784 5778 5771 5765 5759 5753 5747 5742 5737 5732 5729 5726 5723 5722 5720 5719 5719 5719 5720 5721 5721 5723 5724
5859 5858 5857 5856 5854 5850 5848 5846 5843 5839 5835 5831 5826 5822 5816 5812 5806 5799 5792 5786 5779 5772 5765 5758 5751 5745 5738 5731 5725 5720 5714 5710 5706 5703 5701 5700 5699 5698 5698 5699 5700 5701 5703 5705
5857 5856 5855 5853 5850 5848 5846 5843 5839 5835 5830 5826 5821 5813 5806 5802 5797 5789 5782 5774 5766 5758 5749 5741 5734 5726 5718 5711 5704 5698 5692 5686 5682 5679 5677 5676 5675 5675 5676 5677 5678 5679 5682 5684
5855 5853 5850 5848 5846 5844 5842 5839 5835 5830 5825 5820 5815 5808 5798 5792 5786 5778 5770 5761 5752 5742 5733 5724 5714 5705 5696 5687 5679 5671 5664 5659 5654 5651 5650 5648 5648 5648 5649 5651 5653 5656 5659 5662
5852 5850 5847 5845 5842 5839 5837 5834 5830 5824 5818 5813 5807 5801 5790 5781 5773 5764 5756 5745 5734 5723 5713 5703 5692 5681 5671 5661 5653 5646 5640 5635 5631 5628 5625 5623 5622 5621 5623 5624 5627 5630 5633 5637
5850 5846 5844 5841 5838 5836 5831 5829 5823 5818 5812 5805 5798 5792 5782 5773 5762 5752 5741 5729 5716 5705 5692 5679 5667 5656 5647 5640 5634 5630 5626 5622 5619 5616 5613 5610 5608 5606 5604 5604 5604 5606 5608 5612
5848 5844 5841 5838 5835 5832 5831 5824 5818 5812 5805 5796 5789 5779 5769 5759 5749 5738 5724 5709 5696 5681 5668 5656 5645 5638 5632 5627 5623 5619 5616 5612 5608 5605 5602 5599 5596 5595 5594 5593 5592 5591 5591 5592
5845 5842 5838 5835 5832 5827 5822 5817 5810 5803 5795 5785 5777 5766 5755 5743 5733 5723 5707 5691 5676 5661 5649 5639 5632 5627 5622 5617 5612 5608 5603 5599 5595 5591 5588 5585 5583 5581 5580 5580 5580 5580 5579 5580
5843 5840 5836 5832 5827 5823 5818 5810 5802 5796 5788 5774 5765 5755 5744 5732 5721 5710 5693 5675 5658 5646 5636 5628 5623 5617 5612 5607 5601 5595 5590 5585 5580 5576 5573 5570 5568 5567 5566 5566 5566 5566 5567 5568
5843 5838 5834 5829 5823 5816 5812 5804 5798 5790 5783 5772 5760 5748 5733 5719 5704 5689 5674 5659 5646 5635 5627 5620 5613 5607 5600 5594 5587 5580 5574 5569 5564 5559 5556 5553 5551 5550 5550 5550 5551 5552 5553 5555
5839 5835 5830 5825 5820 5814 5806 5798 5789 5781 5770 5758 5747 5734 5720 5705 5690 5673 5658 5646 5636 5627 5619 5611 5603 5595 5587 5579 5570 5563 5557 5551 5545 5541 5537 5535 5533 5532 5532 5533 5534 5536 5538 5541
5836 5831 5825 5821 5817 5808 5799 5790 5782 5772 5761 5749 5736 5723 5707 5692 5676 5661 5649 5638 5628 5618 5609 5599 5589 5580 5571 5562 5552 5544 5538 5531 5526 5521 5518 5516 5514 5514 5514 5515 5517 5520 5523 5527
5830 5827 5822 5816 5811 5803 5793 5784 5776 5766 5753 5740 5726 5711 5695 5679 5665 5651 5640 5630 5619 5609 5597 5585 5574 5563 5554 5544 5534 5526 5518 5512 5506 5502 5499 5497 5496 5496 5497 5499 5501 5505 5509 5513
5828 5822 5817 5810 5803 5797 5789 5779 5768 5757 5745 5731 5717 5700 5684 5669 5655 5643 5632 5621 5609 5597 5584 5571 5558 5547 5536 5526 5517 5508 5500 5493 5488 5485 5482 5480 5480 5480 5482 5484 5487 5491 5496 5501
5822 5817 5811 5805 5797 5789 5780 5770 5759 5748 5737 5723 5708 5693 5677 5661 5648 5636 5625 5612 5599 5585 5572 5558 5546 5533 5522 5511 5501 5492 5485 5478 5473 5469 5467 5465 5465 5466 5468 5471 5475 5479 5486 5492